Regional Weather Roundup
Issued by NWS

Home | Current Version | Previous Version | Graphics & Text | Print | Product List | Glossary On
Versions: 1 2 3 4 5 6 7 8 9 10 11 12 13 14 15 16 17 18 19 20 21 22 23 24 25 26 27 28 29 30 31 32 33 34 35 36 37 38 39 40 41 42 43 44 45 46 47 48 49 50
000
ASUS45 KPSR 021610
RWRAZ

ARIZONA HOURLY REGIONAL WEATHER ROUNDUP
NATIONAL WEATHER SERVICE PHOENIX AZ
900 AM MST MON MAY 02 2016

NOTE: FAIR INDICATES FEW OR NO CLOUDS BELOW 12,000 FEET WITH NO
SIGNIFICANT WEATHER AND/OR OBSTRUCTIONS TO VISIBILITY.

AZZ001>003-036-021700-
NORTHWEST ARIZONA

CITY           SKY/WX    TMP DP  RH WIND       PRES   REMARKS
BULLHEAD CITY  SUNNY     75  43  31 N16       30.05R
KINGMAN        SUNNY     63  42  46 NW8       30.13R
$$

AZZ004>008-015-016-018-021700-
NORTH CENTRAL ARIZONA

CITY           SKY/WX    TMP DP  RH WIND       PRES   REMARKS
GRAND CANYON   MOSUNNY   47  36  65 NE15      30.25R
WILLIAMS       SUNNY     50  32  50 CALM      30.29R
PRESCOTT       SUNNY     52  41  66 VRB3      30.17S
FLAGSTAFF      CLOUDY    39  37  92 E9        30.25R WCI  33
PAYSON         SUNNY     55  36  47 E8G16     30.20R
PAGE           CLOUDY    54  41  61 N5        30.23R
$$

AZZ009>014-017-021700-
NORTHEAST ARIZONA

CITY           SKY/WX    TMP DP  RH WIND       PRES   REMARKS
WINSLOW        SUNNY     49  40  71 VRB3      30.24R
SAINT JOHNS    SUNNY     50  38  63 CALM      30.20S
WINDOW ROCK    MOSUNNY   46  35  65 VRB3      30.26F
SHOW LOW       CLOUDY    39  39 100 CALM      30.24R FOG
$$

AZZ023-021700-
GREATER PHOENIX AREA

CITY           SKY/WX    TMP DP  RH WIND       PRES   REMARKS
PHOENIX        SUNNY     74  41  30 E13       30.01R
BUCKEYE        SUNNY     75  39  27 E13       30.02S
GLENDALE       SUNNY     73  41  31 NE6       30.03R
LUKE AFB       SUNNY     75  41  29 NE8       30.01R
DEER VALLEY    SUNNY     75  39  27 E7        30.01S
SCOTTSDALE     SUNNY     73  39  29 CALM      30.03S
MESA-FALCON    SUNNY    N/A N/A N/A N12       30.00R
MESA-GATEWAY   SUNNY     72  43  35 SE3       30.03R
CHANDLER       SUNNY     73  41  31 E6        30.02S
$$

AZZ027-028-021700-
SOUTHWEST MARICOPA COUNTY AND PINAL COUNTY

CITY           SKY/WX    TMP DP  RH WIND       PRES   REMARKS
CASA GRANDE    SUNNY     73  37  27 NE14      30.04S
GILA BEND      SUNNY     74  41  30 N7        29.99S
$$

AZZ503-504-507>509-021700-
SOUTHEAST ARIZONA

CITY           SKY/WX    TMP DP  RH WIND       PRES   REMARKS
TUCSON         SUNNY     72  32  23 SE13G21   30.06S
DAVIS-MONTHAN  SUNNY     69  35  28 E5        30.05R
RYAN FIELD     SUNNY     70  34  26 E14       30.06S
NOGALES        SUNNY     66  33  29 CALM      30.08S
SIERRA VISTA   SUNNY     60  32  34 SE3       30.15R
DOUGLAS        SUNNY     62  33  33 E13       30.14S
SAFFORD        SUNNY     61  33  35 SE15G23   30.18S
$$

AZZ020-021-025-026-031-021700-
SOUTHWEST ARIZONA

CITY           SKY/WX    TMP DP  RH WIND       PRES   REMARKS
YUMA           MOSUNNY   77  49  37 NE5       29.97R
$$

CAZ031-033-041-043-047-048-061-021700-
SOUTHERN CALIFORNIA

CITY           SKY/WX    TMP DP  RH WIND       PRES   REMARKS
DOWNTOWN L.A.  MOSUNNY   63  54  72 CALM      30.03R
L.A. AIRPORT   PTSUNNY   61  53  75 SW7       30.05R HAZE
SAN DIEGO      MOSUNNY   64  53  67 NW7       30.04S
BURBANK        SUNNY     60  52  74 S3        30.03R
ONTARIO        MOSUNNY   61  51  70 SE3       30.04R
RIVERSIDE      SUNNY     63  52  67 CALM      30.04R
PALM SPRINGS   MOSUNNY   76  46  34 CALM      30.00S
EL CENTRO NAS  SUNNY     70  49  47 NW3       29.99R
IMPERIAL       SUNNY     74  52  46 W3        29.96R
BLYTHE         SUNNY     77  46  33 VRB6      30.00R
NEEDLES        SUNNY     74  44  34 VRB3      30.04R
$$

NVZ020-UTZ003-021700-
SOUTHERN NEVADA-UTAH

CITY           SKY/WX    TMP DP  RH WIND       PRES   REMARKS
LAS VEGAS      MOSUNNY   68  40  35 NE12G17   30.08R
SALT LAKE CITY MOSUNNY   58  30  34 VRB6      30.21S
$$

NMZ009-TXZ055-021700-
NEW MEXICO-WEST TEXAS

CITY           SKY/WX    TMP DP  RH WIND       PRES   REMARKS
ALBUQUERQUE    PTSUNNY   47  32  56 N5        30.31S
EL PASO        MOSUNNY   55  33  43 NE3       30.26S
$$


........................KEY........................
SKY/WX - SKY CONDITION/WEATHER
TMP    - TEMPERATURE IN FAHRENHEIT
DP     - DEW POINT IN FAHRENHEIT
RH     - RELATIVE HUMIDITY IN PERCENT
WIND   - DIRECTION AND SPEED IN MILES PER HOUR (MPH)
VRB    - VARIABLE WIND DIRECTION
PRES   - MEAN SEA LEVEL PRESSURE IN INCHES OF MERCURY
         F - FALLING PRESSURE   R - RISING PRESSURE
         S - STEADY PRESSURE
VSB    - VISIBILITY IN MILES
HX     - HEAT INDEX IN FAHRENHEIT
WCI    - WIND CHILL INDEX IN FAHRENHEIT
TC     - TEMPERATURE IN CELSIUS WHICH IS ALSO KNOWN AS
         TEMPERATURE IN CENTIGRADE
AFB    - AIR FORCE BASE
         LUKE AFB IS LUKE AIR FORCE BASE
         DAVIS-MONTHAN IS DAVIS-MONTHAN AIR FORCE BASE
NAS    - NAVAL AIR STATION
         EL CENTRO NAS IS EL CENTRO NAVAL AIR STATION
N/A    - NOT AVAILABLE




USA.gov is the U.S. government's official web portal to all federal, state and local government web resources and services.